NOSS 2-2 (C) - Orbit

View from above orbital plane
View from above orbital plane
View from above satellite
View from above satellite

Ground track
Ground track

The orbit data is extracted from the following two-line orbital elements,

1 21799U 91076C   13126.07083623 0.00000100  00000-0  56731-4 0    03
2 21799  63.3870  11.1702 0625000  11.5451 348.4549 13.40468994    04
Epoch (UTC): 06 May 2013 01:42:00
Eccentricity: 0.0625000
inclination: 63.3870°
perigee height: 639 km
apogee height: 1575 km
right ascension of ascending node: 11.1702°
argument of perigee: 11.5451°
revolutions per day: 13.40468994
mean anomaly at epoch: 348.4549°
orbit number at epoch: 0

The dashed part of the orbit path shows where the satellite is in the earth's shadow,  

Developed and maintained by Chris Peat, Heavens-Above GmbH. Please read the updated FAQ before sending e-mail. Imprint. DLR